Location: Gulgong NSW 2852, Australia
(32.2976°S, 149.5548°E)
Time: 04:37:06
(UTC+10:00)

Tianhe-1 - Visible Passes

Search period start: 16 May 2021 00:00
Search period end: 26 May 2021 00:00
Orbit: 359 x 385 km, 41.5° (Epoch: 14 May)

Date Brightness Start Highest point End Pass type
(mag) Time Alt. Az. Time Alt. Az. Time Alt. Az.
17 May 4.5 05:27:15 10° NNE 05:27:44 10° NE 05:28:12 10° NE visible
18 May 2.4 05:57:25 10° NW 06:00:21 39° NE 06:03:17 10° ESE visible
19 May 3.6 04:55:56 16° NNE 04:56:52 18° NE 04:59:06 10° E visible
20 May 1.2 05:28:18 32° NW 05:29:35 72° NNE 05:32:42 10° ESE visible
21 May 4.4 04:28:22 13° E 04:28:22 13° E 04:28:51 10° E visible
21 May 1.8 06:00:22 15° W 06:02:33 34° SSW 06:05:28 10° SE visible
22 May 2.8 05:00:14 29° SE 05:00:14 29° SE 05:01:57 10° ESE visible
23 May 2.4 05:31:56 25° SSW 05:31:56 25° SSW 05:34:35 10° SE visible
24 May 3.1 06:03:30 12° SW 06:05:10 16° S 06:07:17 10° SE visible
25 May 3.7 05:03:00 14° SSE 05:03:00 14° SSE 05:03:43 10° SE visible
